Centerville, IA

9:10 AM CDT on May 23, 2017 (GMT -0500)
Centerville Municipal

Weather History for KTVK - November, 2012

Change the Weather History Date:

Sunday, November 25, 2012

  Actual Average Record
Temperature  
Mean Temperature 36 °F -  
Max Temperature 44 °F 44 °F 66 °F (1960)
Min Temperature 28 °F 27 °F 5 °F (1991)
Degree Days  
Heating Degree Days 29    
Moisture  
Dew Point 26 °F    
Average Humidity 66    
Maximum Humidity 86    
Minimum Humidity 53    
Precipitation  
Precipitation 0.00 in - - ()
Sea Level Pressure  
Sea Level Pressure 29.97 in    
Wind  
Wind Speed 8 mph (NNW)    
Max Wind Speed 14 mph    
Max Gust Speed -    
Visibility 10 miles    
Events      
Averages and records for this station are not official NWS values.
T = Trace of Precipitation, MM = Missing Value Source: NWS Daily Summary

Daily Weather History Graph

Daily Weather History Graph

Search for Another Location

Airport or City:

Trip Planner

Search our weather history database for the weather conditions in past years. The results will help you decide how hot, cold, wet, or windy it might be!

Date:

Astronomy

Nov. 25, 2012 Rise Set
Actual Time 7:10 AM CST 4:46 PM CST
Civil Twilight 6:40 AM CST 5:16 PM CST
Nautical Twilight 6:06 AM CST 5:50 PM CST
Astronomical Twilight 5:33 AM CST 6:23 PM CST
Moon 3:04 PM CST (11/25) 4:24 AM CST (11/25)
Length of Visible Light 10h 36m
Length of Day
9h 36m
Waxing Gibbous, 93% of the Moon is Illuminated
Nov 25
Waxing Gibbous
Nov 28
Full
Dec 6
Last Quarter
Dec 13
New
Dec 19
First Quarter

Hourly Weather History & Observations

Time (CST) Temp. Windchill Dew Point Humidity Pressure Visibility Wind Dir Wind Speed Gust Speed Precip Events Conditions
12:15 AM 33.8 °F 26.4 °F 23.0 °F 65% 29.88 in - South 9.2 mph - N/A   Partly Cloudy
12:35 AM 33.8 °F 25.8 °F 23.0 °F 65% 29.87 in - South 10.4 mph - N/A   Scattered Clouds
12:55 AM 33.8 °F 26.4 °F 23.0 °F 65% 29.86 in - South 9.2 mph - N/A   Partly Cloudy
1:15 AM 35.6 °F 28.6 °F 23.0 °F 60% 29.87 in - SSW 9.2 mph - N/A   Clear
1:35 AM 35.6 °F 28.6 °F 23.0 °F 60% 29.86 in - SSW 9.2 mph - N/A   Clear
1:55 AM 37.4 °F 30.8 °F 24.8 °F 60% 29.87 in - SSW 9.2 mph - N/A   Clear
2:15 AM 37.4 °F 30.8 °F 24.8 °F 60% 29.87 in 10.0 mi SW 9.2 mph - N/A   Clear
2:35 AM 37.4 °F 30.8 °F 24.8 °F 60% 29.87 in 10.0 mi SW 9.2 mph - N/A   Clear
2:55 AM 37.4 °F 30.8 °F 24.8 °F 60% 29.87 in 10.0 mi SW 9.2 mph - N/A   Clear
3:15 AM 37.4 °F 30.3 °F 24.8 °F 60% 29.87 in 10.0 mi SW 10.4 mph - N/A   Clear
3:35 AM 35.6 °F 28.6 °F 24.8 °F 65% 29.87 in - SW 9.2 mph - N/A   Clear
3:55 AM 35.6 °F 29.2 °F 24.8 °F 65% 29.87 in - SW 8.1 mph - N/A   Clear
4:15 AM 35.6 °F 28.6 °F 24.8 °F 65% 29.87 in - WSW 9.2 mph - N/A   Clear
4:35 AM 35.6 °F 30.7 °F 24.8 °F 65% 29.87 in - WSW 5.8 mph - N/A   Clear
4:55 AM 37.4 °F 32.1 °F 24.8 °F 60% 29.88 in 10.0 mi West 6.9 mph - N/A   Clear
5:15 AM 37.4 °F 32.1 °F 24.8 °F 60% 29.88 in 10.0 mi West 6.9 mph - N/A   Clear
5:35 AM 35.6 °F 29.9 °F 26.6 °F 70% 29.89 in - West 6.9 mph - N/A   Clear
5:55 AM 35.6 °F 30.7 °F 26.6 °F 70% 29.90 in - West 5.8 mph - N/A   Clear
6:15 AM 35.6 °F 31.7 °F 26.6 °F 70% 29.89 in - West 4.6 mph - N/A   Clear
6:35 AM 35.6 °F 30.7 °F 26.6 °F 70% 29.90 in - WNW 5.8 mph - N/A   Clear
6:55 AM 35.6 °F 31.7 °F 26.6 °F 70% 29.91 in - WNW 4.6 mph - N/A   Clear
7:15 AM 35.6 °F 30.7 °F 26.6 °F 70% 29.91 in - NNW 5.8 mph - N/A   Clear
7:35 AM 37.4 °F 32.1 °F 26.6 °F 65% 29.92 in 10.0 mi NNW 6.9 mph - N/A   Partly Cloudy
7:55 AM 37.4 °F 30.8 °F 26.6 °F 65% 29.92 in 10.0 mi NNW 9.2 mph - N/A   Clear
8:15 AM 37.4 °F 32.1 °F 24.8 °F 60% 29.93 in 10.0 mi North 6.9 mph - N/A   Clear
8:35 AM 37.4 °F 32.1 °F 24.8 °F 60% 29.93 in 10.0 mi NNW 6.9 mph - N/A   Clear
8:55 AM 37.4 °F 30.3 °F 24.8 °F 60% 29.94 in 10.0 mi NNW 10.4 mph - N/A   Clear
9:15 AM 37.4 °F 30.3 °F 24.8 °F 60% 29.95 in 10.0 mi North 10.4 mph - N/A   Clear
9:35 AM 39.2 °F 31.2 °F 24.8 °F 56% 29.96 in 10.0 mi NNW 13.8 mph - N/A   Clear
9:55 AM 39.2 °F 32.5 °F 24.8 °F 56% 29.97 in 10.0 mi NNW 10.4 mph - N/A   Clear
10:15 AM 39.2 °F 32.0 °F 24.8 °F 56% 29.98 in 10.0 mi North 11.5 mph - N/A   Clear
10:35 AM 39.2 °F 33.0 °F 26.6 °F 61% 29.99 in 10.0 mi North 9.2 mph - N/A   Clear
10:55 AM 39.2 °F 32.5 °F 26.6 °F 61% 29.98 in 10.0 mi North 10.4 mph - N/A   Clear
11:15 AM 39.2 °F 33.0 °F 26.6 °F 61% 29.98 in 10.0 mi North 9.2 mph - N/A   Clear
11:35 AM 39.2 °F 32.5 °F 26.6 °F 61% 29.97 in 10.0 mi NNW 10.4 mph - N/A   Clear
11:55 AM 41.0 °F 35.2 °F 28.4 °F 61% 29.97 in 10.0 mi NNW 9.2 mph - N/A   Clear
12:15 PM 41.0 °F 36.4 °F 26.6 °F 57% 29.97 in 10.0 mi NW 6.9 mph - N/A   Clear
12:35 PM 42.8 °F 38.6 °F 28.4 °F 57% 29.96 in 10.0 mi North 6.9 mph - N/A   Clear
12:55 PM 44.6 °F 38.4 °F 28.4 °F 53% 29.96 in 10.0 mi NNW 12.7 mph - N/A   Clear
1:15 PM 42.8 °F 37.5 °F 28.4 °F 57% 29.95 in 10.0 mi North 9.2 mph - N/A   Clear
1:55 PM 41.0 °F 38.0 °F 26.6 °F 57% 29.95 in 10.0 mi North 4.6 mph - N/A   Clear
2:15 PM 41.0 °F 34.7 °F 28.4 °F 61% 29.96 in 10.0 mi North 10.4 mph - N/A   Clear
2:35 PM 41.0 °F 35.8 °F 26.6 °F 57% 29.96 in 10.0 mi North 8.1 mph - N/A   Clear
2:55 PM 41.0 °F 35.2 °F 26.6 °F 57% 29.98 in 10.0 mi NNW 9.2 mph - N/A   Partly Cloudy
3:15 PM 39.2 °F 33.6 °F 26.6 °F 61% 29.99 in 10.0 mi NNW 8.1 mph - N/A   Partly Cloudy
3:35 PM 39.2 °F 33.0 °F 26.6 °F 61% 29.99 in 10.0 mi North 9.2 mph - N/A   Partly Cloudy
3:55 PM 39.2 °F 33.0 °F 26.6 °F 61% 29.98 in 10.0 mi North 9.2 mph - N/A   Scattered Clouds
4:15 PM 37.4 °F 29.8 °F 26.6 °F 65% 29.99 in 10.0 mi North 11.5 mph - N/A   Mostly Cloudy
4:35 PM 37.4 °F 32.8 °F 24.8 °F 60% 30.00 in 10.0 mi North 5.8 mph - N/A   Mostly Cloudy
4:55 PM 37.4 °F 33.8 °F 26.6 °F 65% 30.00 in 10.0 mi NNW 4.6 mph - N/A   Mostly Cloudy
5:15 PM 37.4 °F 32.1 °F 26.6 °F 65% 29.99 in 10.0 mi North 6.9 mph - N/A   Mostly Cloudy
5:35 PM 37.4 °F 32.1 °F 26.6 °F 65% 30.01 in 10.0 mi NNW 6.9 mph - N/A   Overcast
5:55 PM 37.4 °F 31.4 °F 26.6 °F 65% 30.03 in 10.0 mi NNW 8.1 mph - N/A   Overcast
6:15 PM 35.6 °F 29.9 °F 26.6 °F 70% 30.03 in - NNW 6.9 mph - N/A   Overcast
6:35 PM 35.6 °F 29.9 °F 26.6 °F 70% 30.04 in - North 6.9 mph - N/A   Overcast
6:55 PM 35.6 °F 28.6 °F 26.6 °F 70% 30.03 in - North 9.2 mph - N/A   Mostly Cloudy
7:15 PM 32.0 °F 24.8 °F 24.8 °F 75% 30.04 in - North 8.1 mph - N/A   Partly Cloudy
7:35 PM 32.0 °F 25.6 °F 24.8 °F 75% 30.05 in - North 6.9 mph - N/A   Clear
7:55 PM 32.0 °F 25.6 °F 26.6 °F 80% 30.05 in - North 6.9 mph - N/A   Scattered Clouds
8:15 PM 32.0 °F 25.6 °F 24.8 °F 75% 30.06 in - North 6.9 mph - N/A   Partly Cloudy
8:35 PM 32.0 °F 28.7 °F 24.8 °F 75% 30.07 in - North 3.5 mph - N/A   Clear
8:55 PM 30.2 °F - 24.8 °F 80% 30.08 in - Calm Calm - N/A   Clear
9:15 PM 32.0 °F - 24.8 °F 75% 30.08 in - Calm Calm - N/A   Clear
9:35 PM 32.0 °F 28.7 °F 24.8 °F 75% 30.07 in - NE 3.5 mph - N/A   Clear
9:55 PM 28.4 °F 23.3 °F 24.8 °F 86% 30.07 in - NNE 4.6 mph - N/A   Unknown
10:15 PM 28.4 °F 22.2 °F 24.8 °F 86% 30.08 in - North 5.8 mph - N/A   Unknown
10:35 PM 32.0 °F 24.8 °F 26.6 °F 80% 30.09 in - North 8.1 mph - N/A   Clear
10:55 PM 32.0 °F 24.8 °F 26.6 °F 80% 30.10 in - North 8.1 mph - N/A   Clear
11:15 PM 32.0 °F 25.6 °F 26.6 °F 80% 30.11 in - North 6.9 mph - N/A   Clear
11:35 PM 32.0 °F 24.8 °F 26.6 °F 80% 30.11 in - North 8.1 mph - N/A   Clear
11:55 PM 32.0 °F 24.8 °F 24.8 °F 75% 30.12 in - North 8.1 mph - N/A   Clear